Probability
0 0 0 0 0 0 0 0 0 0 0 0 0 0 0 0 0 0 0 0 0 0 0 0 0 0 0 0 0 0 0 0 0 0 0 0 0 0 0 0 0 0 0 0
0 0 0 0 0 0 0 0 0 0 0 0 0 0 0 0 0 0 0 0 0 0 0 0 0 0 0 0 0 0 0 0 0 0 0 0 0 0 0 0 0 0 0 0
0 0 0 0 0 0 0 0 0 0 0 0 0 0 0 0 0 0 0 0 0 0 0 0 0 0 0 0 0 0 0 0 0 0 0 0 0 0 0 0 0 0 0 0
0 0 0 0 0 0 0 0 0 0 0 0 0 0 0 0 0 0 0 0 0 0 0 0 0 0 0 0 0 0 0 0 0 0 0 0 0 0 0 0 0 0 0 0
0 0 0 0 0 0 0 0 0 0 0 0 0 0 0 0 0 0 0 0 0 0 0 0 0 0 0 0 0 0 0 0 0 0 0 0 0 0 0 0 0 0 0 0
0 0 0 0 0 0 0 0 0 0 0 0 0 0 0 0 0 0 0 0 0 0 0 0 0 0 0 0 0 0 0 0 0 0 0 0 0 0 0 0 0 0 0 0
0 0 0 0 0 0 0 0 0 0 0 0 0 0 0 0 0 0 0 0 0 0 0 0 0 0 0 0 0 0 0 0 0 0 0 0 0 0 0 0 0 0 0 0
0 0 0 0 0 0 0 0 0 0 0 0 0 0 0 0 0 0 0 0 0 0 0 0 0 0 0 0 0 0 0 0 0 0 0 0 0 0 0 0 0 0 0 0
0 0 0 0 0 0 0 0 0 0 0 0 0 0 0 0 0 0 0 0 0 0 0 0 0 0 0 0 0 0 0 0 0 0 0 0 0 0 0 0 0 0 0 0
0 0 0 0 0 0 0 0 0 0 0 0 0 0 0 0 0 0 0 0 0 0 0 0 0 0 0 0 0 0 0 0 0 0 0 0 0 0 0 0 0 0 0 0
0 0 0 0 0 0 0 0 0 0 0 0 0 0 0 0 0 0 0 0 0 0 0 0 0 0 0 0 0 0 0 0 0 0 0 0 0 0 0 0 0 0 0 0
0 0 0 0 0 0 0 0 0 0 0 0 0 0 0 0 0 0 0 0 0 0 0 0 0 0 0 0 0 0 0 0 0 0 0 0 0 0 0 0 0 0 0 0
0 0 0 0 0 0 0 0 0 0 0 0 0 0 0 0 0 0 0 0 0 0 0 0 0 0 0 0 0 0 0 0 0 0 0 0 0 0 0 0 0 0 0 0
0 0 0 0 0 0 0 0 0 0 0 0 0 0 0 0 0 0 0 0 0 0 0 0 0 0 0 0 0 0 0 0 0 0 0 0 0 0 0 0 0 0 0 0
0 0 0 0 0 0 0 0 0 0 0 0 0 0 0 0 0 0 0 0 0 0 0 0 0 0 0 0 0 0 0 0 0 0 0 0 0 0 0 0 0 0 0 0
0 0 0 0 0 0 0 0 0 0 0 0 0 0 0 0 0 0 0 0 0 0 0 0 0 0 0 0 0 0 0 0 0 0 0 0 0 0 0 0 0 0 0 0
0 0 0 0 0 0 0 0 0 0 0 0 0 0 0 0 0 0 0 0 0 0 0 0 0 0 0 0 0 0 0 0 0 0 0 0 0 0 0 0 0 0 0 0
0 0 0 0 0 0 0 0 0 0 0 0 0 0 0 0 0 0 0 0 0 0 0 0 0 0 0 0 0 0 0 0 0 0 0 0 0 0 0 0 0 0 0 0
0 0 0 0 0 0 0 0 0 0 0 0 0 0 0 0 0 0 0 0 0 0 0 0 0 0 0 0 0 0 0 0 0 0 0 0 0 0 0 0 0 0 0 0
0 0 0 0 0 0 0 0 0 0 0 0 0 0 0 0 0 0 0 0 0 0 0 0 0 0 0 0 0 0 0 0 0 0 0 0 0 0 0 0 0 0 0 0
0 0 0 0 0 0 0 0 0 0 0 0 0 0 0 0 0 0 0 0 0 0 0 0 0 0 0 0 0 0 0 0 0 0 0 0 0 0 0 0 0 0 0 0
0 0 0 0 0 0 0 0 0 0 0 0 0 0 0 0 0 0 0 0 0 0 0 0 0 0 0 0 0 0 0 0 0 0 0 0 0 0 0 0 0 0 0 0
0 0 0 0 0 0 0 0 0 0 0 0 0 0 0 0 0 0 0 0 0 0 0 0 0 0 0 0 0 0 0 0 0 0 0 0 0 0 0 0 0 0 0 0
0 0 0 0 0 0 0 0 0 0 0 0 0 0 0 0 0 0 0 0 0 0 0 0 0 0 0 0 0 0 0 0 0 0 0 0 0 0 0 0 0 0 0 0
0 0 0 0 0 0 0 0 0 0 0 0 0 0 0 0 0 0 0 0 0 0 0 0 0 0 0 0 0 0 0 0 0 0 0 0 0 0 0 0 0 0 0 0
0 0 0 0 0 0 0 0 0 0 0 0 0 0 0 0 0 0 0 0 0 0 0 0 0 0 0 0 0 0 0 0 0 0 0 0 0 0 0 0 0 0 0 0
0 0 0 0 0 0 0 0 0 0 0 0 0 0 0 0 0 0 0 0 0 0 0 0 0 0 0 0 0 0 0 0 0 0 0 0 0 0 0 0 0 0 0 0
Height
5840 5841 5841 5842 5843 5844 5844 5845 5846 5848 5849 5850 5850 5851 5851 5851 5850 5849 5848 5847 5845 5843 5841 5838 5835 5832 5829 5825 5821 5817 5813 5809 5804 5800 5795 5790 5785 5781 5776 5771 5767 5763 5760 5756
5838 5838 5838 5840 5840 5841 5842 5843 5844 5845 5847 5848 5848 5849 5849 5849 5848 5848 5847 5845 5844 5842 5840 5837 5834 5831 5828 5825 5821 5817 5813 5809 5805 5800 5796 5791 5786 5782 5777 5773 5769 5765 5761 5757
5836 5835 5836 5838 5838 5839 5840 5841 5842 5843 5845 5845 5846 5846 5847 5847 5846 5846 5845 5843 5842 5840 5838 5836 5833 5830 5827 5824 5820 5817 5813 5809 5805 5801 5796 5792 5788 5783 5779 5774 5770 5766 5763 5759
5833 5834 5834 5838 5836 5836 5837 5838 5840 5841 5842 5843 5844 5844 5844 5844 5844 5843 5842 5841 5840 5838 5836 5834 5831 5828 5825 5822 5819 5815 5812 5808 5804 5800 5796 5792 5788 5784 5780 5775 5771 5768 5764 5760
5830 5830 5832 5834 5834 5834 5835 5836 5837 5838 5839 5840 5841 5841 5841 5841 5841 5840 5840 5838 5837 5835 5833 5831 5829 5826 5823 5820 5817 5814 5810 5807 5803 5799 5796 5792 5788 5784 5780 5776 5772 5768 5764 5761
5827 5827 5829 5832 5831 5831 5833 5834 5834 5835 5836 5837 5838 5838 5839 5838 5838 5837 5836 5835 5834 5832 5830 5828 5826 5824 5821 5818 5815 5812 5808 5805 5802 5798 5794 5791 5787 5783 5780 5776 5772 5768 5765 5761
5823 5824 5826 5828 5828 5828 5831 5832 5831 5831 5832 5833 5834 5835 5835 5834 5834 5833 5832 5831 5830 5829 5827 5825 5823 5820 5818 5815 5812 5809 5806 5803 5799 5796 5793 5789 5786 5782 5779 5775 5772 5768 5765 5761
5819 5820 5824 5823 5824 5825 5826 5826 5827 5827 5828 5829 5830 5830 5830 5830 5830 5829 5828 5827 5826 5825 5823 5821 5819 5817 5814 5812 5809 5806 5803 5800 5796 5793 5790 5787 5783 5780 5777 5774 5770 5767 5764 5760
5815 5818 5818 5818 5819 5820 5821 5822 5822 5823 5824 5824 5825 5825 5825 5825 5825 5824 5823 5822 5821 5820 5818 5817 5815 5812 5810 5807 5805 5802 5799 5796 5793 5790 5787 5784 5781 5777 5774 5771 5768 5765 5762 5759
5810 5812 5812 5813 5814 5815 5815 5816 5817 5818 5818 5819 5819 5820 5820 5820 5819 5819 5818 5817 5816 5815 5813 5812 5810 5807 5805 5803 5800 5797 5795 5792 5789 5786 5783 5780 5777 5774 5771 5768 5765 5762 5759 5757
5803 5805 5806 5807 5807 5808 5809 5810 5811 5812 5812 5813 5813 5814 5814 5814 5813 5813 5812 5811 5810 5809 5808 5806 5804 5802 5800 5798 5795 5792 5790 5787 5784 5781 5778 5775 5772 5769 5766 5763 5761 5758 5755 5753
5797 5798 5799 5800 5801 5802 5803 5804 5804 5805 5806 5806 5807 5807 5807 5807 5807 5806 5806 5805 5804 5803 5802 5800 5798 5796 5794 5792 5789 5787 5784 5781 5778 5776 5773 5770 5767 5764 5761 5758 5755 5752 5750 5748
5789 5790 5790 5792 5793 5794 5795 5796 5797 5798 5798 5799 5799 5800 5800 5800 5800 5799 5799 5798 5797 5796 5795 5793 5791 5790 5787 5785 5783 5780 5778 5775 5772 5770 5767 5764 5761 5758 5755 5752 5749 5746 5744 5741
5779 5780 5781 5783 5784 5786 5787 5788 5789 5790 5790 5791 5791 5792 5792 5792 5792 5792 5791 5790 5789 5788 5787 5786 5784 5782 5780 5778 5776 5773 5771 5768 5766 5763 5760 5757 5755 5752 5749 5746 5743 5739 5737 5734
5769 5770 5771 5773 5775 5776 5777 5778 5780 5781 5781 5782 5783 5783 5783 5783 5783 5783 5783 5782 5781 5780 5779 5777 5776 5774 5772 5770 5768 5765 5763 5760 5758 5755 5752 5750 5747 5744 5741 5739 5736 5733 5730 5727
5758 5759 5760 5762 5764 5765 5767 5768 5770 5771 5771 5772 5773 5773 5774 5773 5773 5774 5773 5773 5772 5771 5770 5768 5767 5765 5763 5761 5759 5757 5754 5752 5749 5746 5744 5741 5738 5735 5732 5730 5727 5724 5722 5719
5745 5747 5749 5751 5753 5754 5756 5757 5758 5760 5760 5761 5762 5762 5763 5763 5763 5763 5763 5763 5762 5761 5760 5759 5757 5756 5754 5752 5749 5747 5745 5742 5740 5737 5734 5732 5729 5726 5723 5720 5717 5715 5712 5709
5732 5734 5736 5738 5740 5742 5743 5745 5746 5748 5749 5749 5750 5751 5751 5752 5752 5752 5752 5752 5751 5750 5750 5748 5747 5745 5744 5741 5739 5737 5735 5732 5730 5727 5724 5721 5718 5716 5713 5710 5707 5704 5701 5699
5719 5720 5722 5724 5726 5728 5730 5732 5733 5735 5736 5737 5738 5739 5739 5740 5740 5740 5740 5740 5740 5739 5738 5737 5736 5734 5733 5731 5729 5727 5724 5722 5719 5716 5714 5711 5708 5705 5702 5699 5696 5693 5691 5688
5704 5706 5708 5709 5711 5714 5716 5718 5720 5721 5722 5723 5724 5725 5726 5727 5728 5728 5728 5727 5727 5726 5726 5725 5724 5722 5721 5719 5717 5715 5713 5710 5708 5705 5702 5699 5696 5693 5690 5687 5684 5682 5679 5676
5689 5691 5693 5695 5697 5699 5701 5703 5705 5706 5708 5709 5710 5711 5712 5713 5714 5714 5714 5714 5714 5713 5713 5712 5711 5710 5708 5707 5705 5703 5701 5698 5696 5693 5690 5687 5684 5681 5678 5675 5672 5669 5666 5663
5673 5676 5678 5680 5682 5684 5686 5688 5690 5691 5693 5694 5696 5697 5698 5699 5700 5700 5700 5700 5700 5700 5699 5699 5698 5697 5696 5694 5692 5690 5688 5686 5683 5681 5678 5675 5672 5669 5666 5662 5659 5656 5653 5649
5658 5660 5663 5665 5667 5669 5671 5673 5674 5676 5678 5679 5681 5682 5683 5684 5685 5685 5686 5686 5686 5686 5685 5685 5684 5683 5682 5681 5679 5677 5675 5673 5670 5668 5665 5662 5659 5656 5652 5649 5645 5642 5639 5635
5643 5646 5648 5650 5652 5654 5656 5657 5659 5661 5662 5664 5665 5667 5668 5669 5669 5670 5671 5671 5671 5671 5671 5670 5670 5669 5668 5667 5665 5664 5662 5659 5657 5654 5651 5648 5645 5642 5638 5635 5631 5628 5624 5620
5629 5631 5633 5635 5637 5639 5641 5642 5644 5645 5647 5649 5650 5651 5653 5653 5654 5655 5656 5656 5656 5656 5656 5656 5656 5655 5654 5653 5651 5650 5648 5646 5643 5640 5637 5634 5631 5627 5624 5621 5617 5613 5609 5605
5614 5616 5618 5620 5622 5624 5626 5628 5629 5631 5633 5634 5635 5636 5638 5638 5639 5640 5641 5641 5642 5642 5642 5642 5641 5641 5640 5638 5637 5636 5634 5631 5629 5626 5623 5620 5617 5613 5610 5606 5602 5598 5594 5590
5600 5602 5604 5606 5608 5610 5612 5613 5615 5617 5618 5619 5620 5622 5623 5624 5624 5625 5626 5627 5627 5627 5628 5627 5627 5626 5625 5624 5623 5621 5619 5617 5614 5612 5609 5606 5602 5599 5596 5592 5588 5583 5579 5574
Wind_Speed
10 10 11 11 10 10 10 10 10 9 7 7 6 5 4 4 4 5 6 7 8 10 11 12 13 14 16 17 18 19 20 21 22 22 23 23 23 23 22 21 21 19 18 17
12 12 12 11 10 10 11 11 10 9 8 7 6 5 5 5 5 6 7 8 9 10 11 12 13 14 15 17 18 19 20 20 21 21 22 23 23 23 22 21 21 20 19 18
13 14 13 11 10 11 11 11 11 10 9 8 7 6 6 6 6 7 8 8 9 10 11 12 13 14 15 17 18 19 19 20 20 21 21 22 22 22 22 21 21 20 19 18
14 14 14 11 12 12 12 11 11 11 10 9 8 8 7 8 8 8 9 9 10 11 12 13 14 15 16 17 18 19 19 20 20 21 21 21 21 21 21 21 20 20 19 18
14 14 13 12 13 13 12 12 12 11 11 10 10 9 9 9 9 10 10 11 11 12 13 14 15 16 17 17 18 19 19 20 20 20 21 21 21 21 21 21 20 20 19 18
14 14 13 13 13 13 13 12 12 12 12 11 11 11 11 11 11 12 12 12 13 13 14 15 16 16 17 18 19 19 20 20 20 21 21 21 21 21 21 20 20 19 19 18
15 14 13 13 14 13 13 12 13 13 13 12 12 12 13 13 13 13 14 14 14 15 15 16 17 18 18 19 19 20 20 21 21 21 21 21 21 21 20 20 19 19 19 18
17 15 13 15 14 14 14 14 14 14 14 14 14 14 14 14 15 15 15 15 16 16 17 17 18 19 20 20 20 21 21 21 22 22 21 21 21 21 21 20 20 19 19 18
19 17 16 17 16 16 16 16 16 16 16 16 16 16 16 16 16 17 17 17 17 17 18 19 19 20 21 21 21 22 22 22 23 23 23 22 22 22 22 21 21 20 19 19
20 19 19 19 19 18 18 18 18 18 17 17 18 18 18 18 18 18 19 19 19 19 20 20 21 21 22 22 23 23 23 24 24 24 24 24 24 23 23 23 22 22 21 20
22 21 22 22 21 21 20 20 20 20 19 19 20 20 19 19 20 20 20 20 20 21 21 22 22 23 23 24 24 24 25 25 26 26 26 26 26 25 25 24 24 23 23 22
24 24 25 25 24 23 23 22 22 22 22 21 21 21 21 21 21 21 21 22 22 23 23 24 24 24 25 25 25 26 26 27 27 27 27 27 27 27 27 26 26 25 24 23
28 28 28 28 27 26 26 25 25 25 25 24 24 24 23 23 23 23 24 24 24 24 25 26 26 26 27 27 27 28 28 27 28 28 27 27 27 27 28 28 28 27 26 25
32 31 31 30 30 29 29 29 28 28 27 27 27 26 26 26 26 26 26 26 26 27 27 27 28 28 28 29 29 29 29 29 29 29 29 29 29 28 28 28 29 29 29 28
35 35 34 33 33 33 32 32 31 31 30 30 29 29 29 29 29 29 29 29 29 29 29 30 30 30 30 30 30 31 31 31 31 31 31 31 31 31 31 31 30 30 30 30
37 38 37 36 35 35 35 35 34 33 33 33 32 32 32 32 32 31 31 31 31 31 31 31 31 31 32 32 32 32 33 33 33 33 33 33 34 34 34 34 33 32 32 32
40 39 39 38 38 37 37 37 36 35 35 35 35 35 35 35 34 34 33 33 33 33 33 33 33 33 34 34 34 35 35 35 35 35 35 35 35 35 35 35 35 35 34 34
42 42 41 41 41 40 40 39 39 38 38 38 38 37 37 37 36 36 36 36 35 35 35 36 36 36 36 36 36 36 36 36 36 36 37 37 37 37 37 36 36 35 35 35
43 43 44 44 43 43 42 42 41 41 41 41 40 40 40 39 39 39 39 38 38 38 38 38 38 38 38 38 38 38 37 38 38 38 38 38 38 38 37 37 37 36 36 36
43 43 44 45 45 45 44 44 44 43 43 42 42 42 42 41 41 41 40 40 40 40 40 40 40 39 39 39 39 39 39 39 39 40 40 39 39 38 38 38 38 38 38 39
44 43 44 44 44 44 45 45 45 45 44 44 44 44 44 43 43 42 42 42 42 41 41 41 41 41 41 41 40 40 40 40 41 41 40 40 40 40 40 40 40 40 41 41
43 43 43 44 44 44 44 44 45 45 45 45 45 45 45 45 45 44 44 44 43 43 42 42 42 42 42 42 41 41 42 41 41 41 41 41 41 41 41 42 42 42 42 43
42 42 43 43 43 44 44 44 44 45 45 45 45 45 45 45 45 45 44 44 44 43 43 43 43 43 43 43 43 42 42 42 42 42 42 42 42 43 43 44 44 44 44 45
42 42 41 42 42 43 43 43 44 44 45 45 45 45 45 45 45 45 45 44 44 44 44 44 44 43 43 43 43 43 43 43 43 43 43 44 44 44 44 44 45 45 46 46
42 43 42 42 41 42 42 42 43 43 44 44 44 44 45 45 45 45 45 45 45 45 45 45 44 44 44 44 44 44 44 45 45 45 45 45 45 44 45 45 46 46 47 48
42 42 42 42 41 41 41 42 42 42 42 43 43 43 44 44 45 45 45 45 45 45 45 45 45 44 44 44 45 45 45 45 45 45 45 44 44 45 45 46 46 47 48 49
40 40 41 42 42 42 42 42 42 42 42 42 42 43 43 44 44 44 44 44 44 44 45 45 45 45 45 45 45 45 45 45 44 44 44 44 45 45 46 46 47 48 49 50
Wind_Direction
243 247 242 236 231 230 228 225 224 220 219 214 220 235 247 261 285 307 319 325 330 335 340 344 347 349 351 354 356 358 360 2 4 6 8 9 10 11 13 14 16 17 16 17
248 251 247 241 233 231 228 226 225 222 218 220 228 238 247 263 284 302 313 318 322 327 332 337 341 343 346 348 351 353 355 357 359 1 3 5 7 8 10 12 13 14 15 14
247 247 245 241 233 230 227 227 228 226 225 227 234 241 254 267 282 297 306 312 316 321 326 331 334 337 340 342 345 347 350 352 354 356 359 1 3 5 7 8 9 10 11 11
243 241 238 231 230 229 228 228 230 231 233 234 238 247 258 268 279 291 300 306 310 315 320 325 328 331 334 337 340 342 344 347 349 351 353 355 357 360 2 3 4 5 7 8
241 237 232 230 230 232 231 231 234 235 237 239 244 252 259 268 277 287 295 300 305 310 315 319 322 326 330 333 336 338 339 342 344 345 347 350 353 355 357 358 360 1 1 3
241 237 231 230 233 234 235 234 235 237 239 242 247 255 261 268 276 284 290 296 300 305 309 314 317 321 324 327 330 333 334 336 338 340 342 344 346 349 351 353 354 357 358 359
244 241 235 235 237 238 239 236 237 240 243 247 251 256 262 268 275 281 287 292 297 301 305 309 313 316 319 322 324 327 329 331 332 334 337 338 340 341 343 345 347 349 351 352
247 245 242 240 241 241 242 242 243 245 248 250 254 258 263 268 274 280 285 290 294 298 302 306 310 312 315 317 320 322 324 326 328 329 331 332 334 335 336 337 339 341 343 343
248 249 248 247 247 247 246 246 247 250 252 254 256 260 264 269 274 279 283 287 291 294 299 303 307 310 312 314 316 318 319 321 323 324 325 327 328 328 329 329 330 332 333 334
251 249 249 249 249 250 250 251 251 253 255 257 260 262 265 270 274 278 281 285 289 292 296 300 303 306 308 311 313 314 315 316 318 319 320 321 322 322 322 323 323 324 325 325
254 253 251 251 251 251 252 253 254 256 257 258 261 264 267 270 273 277 280 283 287 290 294 297 300 303 305 307 309 311 312 313 314 315 316 317 318 318 318 318 318 318 318 318
254 254 254 253 253 254 255 256 257 259 260 261 262 265 267 270 273 276 279 282 285 288 291 294 297 299 302 304 305 308 309 310 311 311 311 313 314 314 314 314 314 314 314 313
254 253 254 255 255 255 256 257 258 259 260 262 264 265 267 269 272 275 278 281 283 286 289 291 294 296 299 301 303 305 306 307 308 308 308 309 310 311 311 311 311 310 310 309
255 255 255 255 255 255 255 256 258 259 260 262 264 265 267 269 271 274 276 279 281 284 286 289 292 294 297 299 300 302 303 303 304 305 306 306 306 307 308 308 307 307 307 306
254 255 255 255 256 256 256 256 257 258 260 262 264 266 267 269 270 272 274 277 279 282 284 287 290 292 294 296 297 299 300 301 302 302 303 303 303 303 304 304 303 303 302 302
252 253 254 255 255 256 256 257 258 258 259 261 263 265 266 268 269 271 273 275 277 280 282 285 287 289 291 293 295 296 297 299 299 300 300 301 301 301 301 301 301 300 299 298
252 253 254 255 255 256 257 257 258 259 260 261 263 264 265 267 269 271 272 274 276 278 280 283 285 288 290 291 293 294 295 297 298 298 298 298 299 299 299 299 299 299 298 297
252 253 254 255 255 256 256 257 258 259 260 261 262 263 264 266 268 270 272 273 275 277 279 281 283 286 288 289 291 292 294 295 296 297 297 297 298 298 298 298 298 297 297 296
252 252 253 254 255 256 257 257 258 259 260 261 262 262 264 266 268 270 271 273 274 276 278 280 282 284 286 288 289 291 292 294 295 296 297 297 297 297 297 297 297 296 296 295
252 253 254 254 255 256 257 257 258 259 260 260 261 262 264 265 267 269 271 272 274 275 277 279 281 282 284 286 288 289 291 292 294 295 296 296 296 296 297 297 296 295 295 295
253 253 254 254 255 255 256 256 257 258 259 260 261 262 264 265 266 268 270 271 273 274 276 278 279 281 283 285 286 288 289 291 293 294 295 295 295 296 296 296 296 295 295 295
253 254 254 254 255 255 255 256 256 257 258 260 261 262 263 264 266 267 268 270 272 273 275 276 278 280 282 283 285 287 288 290 292 293 294 295 295 295 295 295 295 294 294 294
254 254 254 254 255 255 255 256 256 257 258 259 260 261 262 263 264 266 267 269 270 271 273 275 277 279 280 282 284 286 288 289 291 293 294 294 294 294 295 295 295 294 294 294
253 253 254 255 255 256 256 256 256 257 258 259 260 260 261 262 263 264 266 267 269 270 272 274 276 278 279 281 283 285 287 289 291 292 293 293 293 294 294 294 294 294 294 294
254 254 254 255 255 255 256 256 256 257 258 258 259 260 260 261 262 263 264 266 268 270 271 273 275 277 278 280 282 284 286 288 290 291 292 292 293 293 293 294 294 294 295 295
254 253 253 253 253 254 255 255 256 256 257 258 259 259 260 261 262 263 264 265 267 269 271 273 274 276 278 280 282 284 286 288 289 290 291 291 292 293 293 294 295 295 296 296
253 253 253 254 254 254 255 255 255 256 256 257 258 259 259 260 262 264 265 266 267 269 270 272 273 275 277 280 282 284 286 287 288 289 290 291 292 293 294 294 295 296 297 298